Location: Oberkirch
(48.5323°N, 8.0787°E)
Time: 03:56:18
(UTC+00:00)

CUBEBUG 2 - Pass Details

Date: 23 March 2026
Orbit: 548 x 627 km, 97.9° (Epoch: 17 April)

Event Time Altitude Azimuth Distance (km) Brightness Sun altitude
Rises 02:55:23 0° 4° (N) 2,919 ? -24.2°
Reaches altitude 10° 02:57:50 10° 352° (N) 2,012 ? -23.9°
Enters shadow 03:00:15 23° 322° (NW) 1,345 ? -23.5°
